Location: Buchdorf
(48.7842°N, 10.8275°E)
Time: 09:30:42
(UTC+00:00)

STARLINK-1237 - Pass Details

Date: 09 April 2020
Orbit: 549 x 551 km, 53.0° (Epoch: 07 June)

Event Time Altitude Azimuth Distance (km) Brightness Sun altitude
Rises 20:32:20 0° 294° (WNW) 2,724 8.4 -22.6°
Reaches altitude 10° 20:34:39 10° 287° (WNW) 1,827 7.1 -22.9°
Enters shadow 20:38:12 40° 231° (SW) 820 4.4 -23.3°
